Torna al catalogo

COSMOS 2471

GLONASS

AttivoNavigazioneMEO
NORAD 37372·PAYLOAD·🇷🇺 Russia

Lanciato Feb 26, 2011 da Plesetsk Cosmodrome

Loading…

Prossimi Passaggi (prossime 24 ore)

TLE

AggiornatoSource: Space-Track

Epoca: Sep 13, 2026, 13:48 UTC

1 37372U 11009A   26256.57513797 -.00000050  00000-0  00000-0 0  9994
2 37372  65.3519 311.4981 0008361 319.7392  93.3768  2.12911142120969

Traccia COSMOS 2471 in tempo reale con AllMySat

Download on the App Store